Location: Coed Ely
(51.5661°N, 3.4150°W)
Time: 02:28:54
(UTC+00:00)

ISS - Pass Details

Date: 28 January 2021
Orbit: 417 x 422 km, 51.6° (Epoch: 28 February)

Event Time Altitude Azimuth Distance (km) Brightness Sun altitude
Rises 19:21:54 0° 279° (W) 2,376 1.5 -22.5°
Reaches altitude 10° 19:24:00 10° 278° (W) 1,511 0.2 -22.8°
Enters shadow 19:26:35 49° 269° (W) 557 -2.8 -23.2°
